Weather History for KSFY - November, 2013

Change the Weather History Date:

Friday, November 15, 2013

  Actual Average (KCWI) Record (KCWI)
Temperature  
Mean Temperature 44 °F -  
Max Temperature 55 °F 48 °F 71 °F (1990)
Min Temperature 32 °F 31 °F 2 °F (1959)
Degree Days  
Heating Degree Days 22    
Moisture  
Dew Point 30 °F    
Average Humidity 62    
Maximum Humidity 87    
Minimum Humidity 38    
Precipitation  
Precipitation 0.00 in - - ()
Sea Level Pressure  
Sea Level Pressure 29.91 in    
Wind  
Wind Speed 8 mph (South)    
Max Wind Speed 13 mph    
Max Gust Speed -    
Visibility 10 miles    
Events      
Averages and records for this station are not official NWS values.
T = Trace of Precipitation, MM = Missing Value Source: NWS Daily Summary

Daily Weather History Graph

Daily Weather History Graph

Search for Another Location

Airport or City:

Trip Planner

Search our weather history database for the weather conditions in past years. The results will help you decide how hot, cold, wet, or windy it might be!

Date:

Astronomy

Nov. 15, 2013 Rise Set
Actual Time 6:50 AM CST 4:38 PM CST
Civil Twilight 6:20 AM CST 5:09 PM CST
Nautical Twilight 5:46 AM CST 5:42 PM CST
Astronomical Twilight 5:13 AM CST 6:15 PM CST
Moon 3:37 PM CST (11/15) 4:45 AM CST (11/15)
Length of Visible Light 10h 48m
Length of Day
9h 48m
Waxing Gibbous, 96% of the Moon is Illuminated
Nov 15
Waxing Gibbous
Nov 17
Full
Nov 25
Last Quarter
Dec 2
New
Dec 9
First Quarter

Hourly Weather History & Observations

Time (CST) Temp. Windchill Dew Point Humidity Pressure Visibility Wind Dir Wind Speed Gust Speed Precip Events Conditions
12:35 AM 44.6 °F 39.2 °F 26.4 °F 49% 29.92 in 10.0 mi SW 10.4 mph - N/A   Scattered Clouds
12:37 AM 44.6 °F 39.2 °F 26.6 °F 49% 29.92 in 10.0 mi SW 10.4 mph - N/A   Scattered Clouds
12:55 AM 44.6 °F 39.7 °F 26.2 °F 49% 29.92 in 10.0 mi SW 9.2 mph - N/A   Clear
1:15 AM 44.2 °F 38.4 °F 26.4 °F 50% 29.92 in 10.0 mi SW 11.5 mph - N/A   Clear
1:35 AM 44.4 °F 39.5 °F 26.1 °F 49% 29.92 in 10.0 mi SW 9.2 mph - N/A   Scattered Clouds
1:55 AM 43.7 °F 39.7 °F 26.2 °F 50% 29.92 in 10.0 mi SSW 6.9 mph - N/A   Scattered Clouds
2:15 AM 43.2 °F 39.7 °F 26.6 °F 52% 29.92 in 10.0 mi SSW 5.8 mph - N/A   Scattered Clouds
2:35 AM 43.0 °F 39.5 °F 27.3 °F 54% 29.92 in 10.0 mi SSW 5.8 mph - N/A   Mostly Cloudy
2:55 AM 41.9 °F 38.2 °F 27.0 °F 55% 29.91 in 10.0 mi SSW 5.8 mph - N/A   Mostly Cloudy
3:15 AM 41.7 °F 38.8 °F 27.1 °F 56% 29.91 in 10.0 mi South 4.6 mph - N/A   Scattered Clouds
3:35 AM 36.1 °F - 27.7 °F 71% 29.91 in 10.0 mi Calm Calm - N/A   Scattered Clouds
3:55 AM 39.4 °F 37.2 °F 27.3 °F 62% 29.91 in 10.0 mi SW 3.5 mph - N/A   Clear
4:15 AM 37.0 °F 32.4 °F 27.7 °F 69% 29.91 in 10.0 mi South 5.8 mph - N/A   Clear
4:35 AM 37.8 °F 34.2 °F 27.7 °F 67% 29.92 in 10.0 mi South 4.6 mph - N/A   Clear
4:55 AM 32.9 °F 27.5 °F 27.1 °F 79% 29.92 in 10.0 mi SE 5.8 mph - N/A   Clear
5:15 AM 33.8 °F 27.0 °F 27.3 °F 77% 29.92 in 10.0 mi SSE 8.1 mph - N/A   Clear
5:35 AM 35.6 °F 29.2 °F 27.7 °F 73% 29.92 in 10.0 mi SSE 8.1 mph - N/A   Mostly Cloudy
5:55 AM 36.0 °F 29.6 °F 27.1 °F 70% 29.92 in 10.0 mi SSE 8.1 mph - N/A   Overcast
6:15 AM 36.5 °F 29.7 °F 27.1 °F 69% 29.93 in 10.0 mi SSE 9.2 mph - N/A   Overcast
6:35 AM 36.1 °F 30.6 °F 26.6 °F 68% 29.93 in 10.0 mi South 6.9 mph - N/A   Overcast
6:55 AM 34.0 °F 28.8 °F 26.4 °F 74% 29.94 in 10.0 mi SSE 5.8 mph - N/A   Mostly Cloudy
7:15 AM 33.8 °F 27.7 °F 26.4 °F 74% 29.94 in 10.0 mi SSE 6.9 mph - N/A   Scattered Clouds
7:35 AM 32.9 °F 28.5 °F 26.8 °F 78% 29.95 in 10.0 mi SSE 4.6 mph - N/A   Clear
7:55 AM 34.7 °F 28.8 °F 26.8 °F 73% 29.95 in 10.0 mi SSE 6.9 mph - N/A   Clear
8:15 AM 35.8 °F 33.0 °F 27.3 °F 71% 29.96 in 10.0 mi South 3.5 mph - N/A   Scattered Clouds
8:35 AM 36.1 °F 33.5 °F 28.4 °F 73% 29.96 in 10.0 mi SSE 3.5 mph - N/A   Clear
8:55 AM 39.9 °F 36.7 °F 28.0 °F 63% 29.96 in 10.0 mi South 4.6 mph - N/A   Clear
9:15 AM 42.4 °F 38.1 °F 27.7 °F 56% 29.95 in 10.0 mi South 6.9 mph - N/A   Clear
9:35 AM 44.1 °F 39.5 °F 27.5 °F 52% 29.95 in 10.0 mi SSW 8.1 mph - N/A   Clear
9:55 AM 44.6 °F 40.2 °F 27.9 °F 52% 29.96 in 10.0 mi SSW 8.1 mph - N/A   Clear
10:15 AM 46.2 °F 42.2 °F 28.9 °F 51% 29.96 in 10.0 mi South 8.1 mph - N/A   Clear
10:35 AM 46.9 °F - 29.5 °F 51% 29.96 in 10.0 mi SSW 6.9 mph - N/A   Scattered Clouds
10:55 AM 48.4 °F - 29.3 °F 48% 29.95 in 10.0 mi SW 8.1 mph - N/A   Scattered Clouds
11:15 AM 50.0 °F - 29.8 °F 46% 29.94 in 10.0 mi SW 6.9 mph - N/A   Clear
11:35 AM 50.7 °F - 30.4 °F 46% 29.94 in 10.0 mi South 5.8 mph - N/A   Clear
11:55 AM 52.0 °F - 30.4 °F 44% 29.93 in 10.0 mi SSW 8.1 mph - N/A   Clear
12:15 PM 53.6 °F - 30.9 °F 42% 29.92 in 10.0 mi SSW 9.2 mph - N/A   Clear
12:35 PM 54.3 °F - 30.7 °F 41% 29.91 in 10.0 mi South 10.4 mph - N/A   Clear
12:55 PM 54.5 °F - 30.6 °F 40% 29.91 in 10.0 mi South 8.1 mph - N/A   Clear
1:15 PM 54.9 °F - 30.7 °F 40% 29.90 in 10.0 mi South 10.4 mph - N/A   Clear
1:35 PM 55.0 °F - 30.9 °F 40% 29.90 in 10.0 mi South 8.1 mph - N/A   Clear
1:55 PM 54.9 °F - 30.0 °F 39% 29.89 in 10.0 mi South 9.2 mph - N/A   Clear
2:15 PM 55.0 °F - 30.6 °F 39% 29.89 in 10.0 mi South 10.4 mph - N/A   Clear
2:35 PM 55.0 °F - 30.2 °F 39% 29.89 in 10.0 mi South 10.4 mph - N/A   Clear
2:55 PM 55.4 °F - 30.4 °F 38% 29.89 in 10.0 mi South 8.1 mph - N/A   Clear
3:15 PM 55.0 °F - 30.9 °F 40% 29.89 in 10.0 mi South 6.9 mph - N/A   Clear
3:35 PM 54.7 °F - 31.5 °F 41% 29.89 in 10.0 mi South 8.1 mph - N/A   Clear
3:55 PM 53.1 °F - 32.0 °F 45% 29.89 in 10.0 mi South 9.2 mph - N/A   Clear
4:15 PM 51.1 °F - 32.0 °F 48% 29.90 in 10.0 mi South 8.1 mph - N/A   Clear
4:35 PM 47.3 °F - 32.7 °F 57% 29.90 in 10.0 mi SSE 8.1 mph - N/A   Clear
4:55 PM 48.2 °F - 32.4 °F 54% 29.89 in 10.0 mi SSE 12.7 mph - N/A   Clear
5:15 PM 46.6 °F - 32.0 °F 57% 29.90 in 10.0 mi South 10.4 mph - N/A   Clear
5:35 PM 44.4 °F 39.5 °F 32.2 °F 62% 29.90 in 10.0 mi SSE 9.2 mph - N/A   Clear
5:55 PM 42.4 °F 37.0 °F 32.2 °F 67% 29.91 in 10.0 mi South 9.2 mph - N/A   Clear
6:15 PM 41.5 °F 36.4 °F 32.5 °F 70% 29.91 in 10.0 mi SSE 8.1 mph - N/A   Clear
6:35 PM 40.1 °F 35.3 °F 32.4 °F 74% 29.91 in 10.0 mi SSE 6.9 mph - N/A   Clear
6:55 PM 38.1 °F 32.9 °F 32.2 °F 79% 29.90 in 10.0 mi SSE 6.9 mph - N/A   Clear
7:15 PM 39.0 °F 33.4 °F 33.1 °F 79% 29.90 in 10.0 mi SSE 8.1 mph - N/A   Clear
7:35 PM 39.6 °F 34.0 °F 34.0 °F 80% 29.90 in 10.0 mi SSE 8.1 mph - N/A   Clear
7:55 PM 39.4 °F 34.5 °F 34.3 °F 82% 29.90 in 10.0 mi SSE 6.9 mph - N/A   Clear
8:15 PM 39.2 °F 34.2 °F 34.9 °F 84% 29.89 in 10.0 mi SSE 6.9 mph - N/A   Clear
8:35 PM 38.3 °F 33.2 °F 34.2 °F 85% 29.89 in 10.0 mi SSE 6.9 mph - N/A   Clear
8:55 PM 38.8 °F 33.8 °F 34.5 °F 84% 29.89 in 10.0 mi South 6.9 mph - N/A   Clear
9:15 PM 37.9 °F 34.4 °F 34.0 °F 86% 29.88 in 10.0 mi SSE 4.6 mph - N/A   Clear
9:35 PM 37.6 °F 32.3 °F 33.8 °F 86% 29.88 in 10.0 mi SSE 6.9 mph - N/A   Clear
9:55 PM 37.4 °F 31.4 °F 33.8 °F 87% 29.87 in 10.0 mi SSE 8.1 mph - N/A   Clear
10:15 PM 39.6 °F 33.5 °F 34.7 °F 83% 29.87 in 10.0 mi SSE 9.2 mph - N/A   Clear
10:35 PM 38.3 °F 32.5 °F 33.8 °F 84% 29.87 in 10.0 mi South 8.1 mph - N/A   Clear
10:55 PM 38.7 °F 32.9 °F 34.0 °F 83% 29.87 in 10.0 mi SSE 8.1 mph - N/A   Clear
11:15 PM 38.5 °F 32.7 °F 33.8 °F 83% 29.87 in 10.0 mi South 8.1 mph - N/A   Clear
11:35 PM 37.6 °F 32.3 °F 33.1 °F 84% 29.87 in 10.0 mi SSE 6.9 mph - N/A   Clear
11:55 PM 37.4 °F 32.8 °F 32.9 °F 84% 29.87 in 10.0 mi South 5.8 mph - N/A   Clear